TimeCDT,TemperatureF,Dew PointF,Humidity,Sea Level PressureIn,VisibilityMPH,Wind Direction,Wind SpeedMPH,Gust SpeedMPH,PrecipitationIn,Events,Conditions,WindDirDegrees,DateUTC
12:15 AM,59.5,49.1,68,29.85,10.0,West,5.8,-,N/A,,Clear,260,2013-11-01 05:15:00
12:35 AM,59.5,49.3,69,29.86,10.0,West,6.9,-,N/A,,Clear,260,2013-11-01 05:35:00
12:55 AM,59.0,49.5,71,29.86,10.0,WSW,6.9,-,N/A,,Clear,250,2013-11-01 05:55:00
1:15 AM,57.7,49.5,74,29.86,10.0,WSW,5.8,-,N/A,,Clear,250,2013-11-01 06:15:00
1:35 AM,57.6,49.6,75,29.86,10.0,WSW,6.9,-,N/A,,Clear,250,2013-11-01 06:35:00
1:55 AM,57.4,49.5,75,29.86,10.0,West,3.5,-,N/A,,Clear,270,2013-11-01 06:55:00
2:15 AM,56.5,49.5,77,29.86,10.0,WSW,4.6,-,N/A,,Clear,250,2013-11-01 07:15:00
2:35 AM,57.0,49.5,76,29.85,10.0,West,4.6,-,N/A,,Clear,260,2013-11-01 07:35:00
2:55 AM,57.0,49.5,76,29.85,10.0,WSW,3.5,-,N/A,,Clear,250,2013-11-01 07:55:00
3:15 AM,56.7,49.1,76,29.85,10.0,WNW,3.5,-,N/A,,Clear,290,2013-11-01 08:15:00
3:35 AM,55.6,49.1,79,29.84,10.0,Calm,Calm,-,N/A,,Clear,0,2013-11-01 08:35:00
3:55 AM,53.1,49.1,86,29.84,10.0,Calm,Calm,-,N/A,,Clear,0,2013-11-01 08:55:00
4:15 AM,51.8,48.9,90,29.83,10.0,Calm,Calm,-,N/A,,Clear,0,2013-11-01 09:15:00
4:35 AM,51.8,48.7,89,29.84,10.0,Calm,Calm,-,N/A,,Clear,0,2013-11-01 09:35:00
4:55 AM,51.6,49.1,91,29.84,10.0,Calm,Calm,-,N/A,,Clear,0,2013-11-01 09:55:00
5:15 AM,50.2,48.4,94,29.84,10.0,Calm,Calm,-,N/A,,Clear,0,2013-11-01 10:15:00
5:35 AM,50.9,48.9,93,29.84,10.0,Calm,Calm,-,N/A,,Clear,0,2013-11-01 10:35:00
5:55 AM,51.8,48.9,90,29.85,10.0,Calm,Calm,-,N/A,,Clear,0,2013-11-01 10:55:00
6:15 AM,50.0,48.0,93,29.85,10.0,Calm,Calm,-,N/A,,Clear,0,2013-11-01 11:15:00
6:35 AM,49.6,47.8,94,29.85,10.0,Calm,Calm,-,N/A,,Clear,0,2013-11-01 11:35:00
6:55 AM,49.3,47.3,93,29.85,10.0,Calm,Calm,-,N/A,,Clear,0,2013-11-01 11:55:00
7:15 AM,48.6,46.9,94,29.86,10.0,Calm,Calm,-,N/A,,Clear,0,2013-11-01 12:15:00
7:35 AM,48.7,47.1,94,29.86,10.0,Calm,Calm,-,N/A,,Clear,0,2013-11-01 12:35:00
7:55 AM,48.6,47.1,95,29.87,10.0,Calm,Calm,-,N/A,,Clear,0,2013-11-01 12:55:00
8:15 AM,49.5,48.0,95,29.87,10.0,Calm,Calm,-,N/A,,Clear,0,2013-11-01 13:15:00
8:35 AM,51.4,49.1,92,29.88,10.0,Calm,Calm,-,N/A,,Clear,0,2013-11-01 13:35:00
8:55 AM,52.7,49.6,89,29.88,10.0,Calm,Calm,-,N/A,,Clear,0,2013-11-01 13:55:00
9:15 AM,54.7,51.6,89,29.90,10.0,Calm,Calm,-,N/A,,Clear,0,2013-11-01 14:15:00
9:35 AM,58.1,52.5,82,29.90,10.0,Calm,Calm,-,N/A,,Clear,0,2013-11-01 14:35:00
9:55 AM,61.0,53.2,76,29.90,10.0,Calm,Calm,-,N/A,,Clear,0,2013-11-01 14:55:00
10:15 AM,64.4,52.7,66,29.91,10.0,West,3.5,-,N/A,,Clear,260,2013-11-01 15:15:00
10:35 AM,66.0,52.5,62,29.91,10.0,SW,3.5,-,N/A,,Clear,230,2013-11-01 15:35:00
10:55 AM,68.0,52.2,57,29.91,10.0,SW,3.5,-,N/A,,Clear,230,2013-11-01 15:55:00
11:15 AM,70.2,51.3,51,29.91,10.0,SW,3.5,-,N/A,,Clear,220,2013-11-01 16:15:00
11:35 AM,71.8,50.9,48,29.90,10.0,Calm,Calm,-,N/A,,Clear,0,2013-11-01 16:35:00
11:55 AM,73.6,49.6,43,29.90,10.0,Calm,Calm,-,N/A,,Clear,0,2013-11-01 16:55:00
12:15 PM,75.2,46.9,37,29.90,10.0,SSW,4.6,-,N/A,,Clear,200,2013-11-01 17:15:00
12:35 PM,76.1,46.8,35,29.89,10.0,WSW,4.6,-,N/A,,Clear,240,2013-11-01 17:35:00
12:55 PM,76.3,46.0,34,29.89,10.0,SSW,3.5,-,N/A,,Clear,210,2013-11-01 17:55:00
1:15 PM,77.2,42.6,29,29.88,10.0,Calm,Calm,-,N/A,,Clear,0,2013-11-01 18:15:00
1:35 PM,78.4,38.1,23,29.87,10.0,Calm,Calm,-,N/A,,Clear,0,2013-11-01 18:35:00
1:55 PM,78.3,42.4,28,29.87,10.0,SE,3.5,-,N/A,,Clear,130,2013-11-01 18:55:00
2:15 PM,78.8,41.9,27,29.86,10.0,Calm,Calm,-,N/A,,Clear,0,2013-11-01 19:15:00
2:35 PM,78.8,41.5,26,29.85,10.0,Calm,Calm,-,N/A,,Clear,0,2013-11-01 19:35:00
2:55 PM,79.5,41.4,26,29.85,10.0,WNW,3.5,-,N/A,,Clear,290,2013-11-01 19:55:00
3:15 PM,79.2,40.5,25,29.85,10.0,South,3.5,-,N/A,,Clear,190,2013-11-01 20:15:00
4:55 PM,78.8,37.6,23,29.85,10.0,North,3.5,-,N/A,,Clear,10,2013-11-01 21:55:00
5:15 PM,78.4,38.3,24,29.85,10.0,Calm,Calm,-,N/A,,Clear,0,2013-11-01 22:15:00
5:35 PM,77.4,42.8,29,29.86,10.0,NNW,4.6,-,N/A,,Clear,340,2013-11-01 22:35:00
5:55 PM,76.8,41.4,28,29.87,10.0,NW,4.6,-,N/A,,Clear,310,2013-11-01 22:55:00
6:15 PM,73.6,51.1,45,29.89,10.0,North,8.1,18.4,N/A,,Clear,350,2013-11-01 23:15:00
6:35 PM,72.0,50.4,46,29.90,10.0,North,5.8,-,N/A,,Clear,360,2013-11-01 23:35:00
6:55 PM,70.7,49.3,47,29.91,10.0,North,4.6,-,N/A,,Clear,360,2013-11-01 23:55:00
7:15 PM,68.9,50.7,52,29.92,10.0,Calm,Calm,-,N/A,,Scattered Clouds,0,2013-11-02 00:15:00
7:35 PM,68.2,50.4,53,29.93,10.0,WNW,3.5,-,N/A,,Scattered Clouds,290,2013-11-02 00:35:00
7:55 PM,67.6,49.5,52,29.94,10.0,WNW,3.5,-,N/A,,Scattered Clouds,300,2013-11-02 00:55:00
8:15 PM,66.7,50.7,56,29.95,10.0,NW,4.6,-,N/A,,Scattered Clouds,320,2013-11-02 01:15:00
8:35 PM,67.1,50.4,55,29.96,10.0,NW,6.9,-,N/A,,Mostly Cloudy,320,2013-11-02 01:35:00
8:55 PM,66.4,48.7,53,29.97,10.0,NNW,11.5,-,N/A,,Scattered Clouds,330,2013-11-02 01:55:00
9:15 PM,67.1,46.8,48,29.98,10.0,NNW,11.5,16.1,N/A,,Clear,340,2013-11-02 02:15:00
9:35 PM,65.1,46.9,52,30.00,10.0,NNW,9.2,-,N/A,,Clear,340,2013-11-02 02:35:00
9:55 PM,64.0,46.8,53,30.01,10.0,NNW,8.1,-,N/A,,Clear,340,2013-11-02 02:55:00
10:15 PM,63.5,46.8,54,30.02,10.0,NNW,9.2,-,N/A,,Clear,330,2013-11-02 03:15:00
10:35 PM,63.0,46.6,55,30.03,10.0,NNW,10.4,-,N/A,,Clear,340,2013-11-02 03:35:00
10:55 PM,62.6,46.6,56,30.04,10.0,NNW,9.2,-,N/A,,Clear,330,2013-11-02 03:55:00
11:15 PM,61.9,46.4,57,30.05,10.0,NNW,9.2,-,N/A,,Clear,330,2013-11-02 04:15:00
11:35 PM,61.5,46.2,57,30.06,10.0,NNW,10.4,-,N/A,,Clear,330,2013-11-02 04:35:00
11:55 PM,60.6,46.0,59,30.06,10.0,NNW,6.9,-,N/A,,Clear,340,2013-11-02 04:55:00